Regional Weather Roundup
Issued by NWS

Home | Current Version | Previous Version | Graphics & Text | Print | Product List | Glossary On
Versions: 1 2 3 4 5 6 7 8 9 10 11 12 13 14 15 16 17 18 19 20 21 22 23 24 25 26 27 28 29 30 31 32 33 34 35 36 37 38 39 40 41 42 43 44 45 46 47 48 49 50
000
ASUS45 KABQ 260701
RWRNM
NEW MEXICO REGIONAL WEATHER ROUNDUP
NATIONAL WEATHER SERVICE ALBUQUERQUE NM
100 AM MDT MON JUN 26 2017

NOTE: "FAIR" MEANS FEW OR NO CLOUDS BELOW 12,000 FEET AGL WITH NO
       SIGNIFICANT WEATHER OR OBSTRUCTIONS TO VISION.

      THIS PRODUCT IS RELEASED AS TWO VERSIONS.  ONE VERSION NEAR
      THE TOP OF THE HOUR CONTAINING PRELIMINARY DATA FROM ALBUQUERQUE
      AND OTHER STATIONS.  A FINAL VERSION WITH ADDITIONAL DATA IS
      ISSUED ABOUT 10 MINUTES AFTER THE HOUR.

NMZ501-503-504-510>518-260800-
NORTHWEST PLATEAU/NORTHCENTRAL MOUNTAINS

CITY           SKY/WX    TMP DP  RH WIND       PRES   REMARKS
FARMINGTON     FAIR      72  40  31 VRB3      30.15S
LOS ALAMOS     FAIR      58  48  68 SW9       30.42S
SANTA FE       FAIR      60  51  72 SE10      30.36S
TAOS           FAIR      59  45  58 W5        30.41R
ANGEL FIRE     FAIR      49  48  95 CALM      30.49F

$$
NMZ402-403-502-505>509-260800-
WESTCENTRAL MOUNTAINS/SOUTHWEST MOUNTAINS

CITY           SKY/WX    TMP DP  RH WIND       PRES   REMARKS
GALLUP         FAIR      64  44  48 CALM      30.30S
GRANTS         FAIR      59  51  74 CALM      30.31S
SILVER CITY    MOCLDY    66  58  75 NW6       30.37R

$$
NMZ407-409-411-412-260800-
SOUTHERN DESERTS

CITY           SKY/WX    TMP DP  RH WIND       PRES   REMARKS
DEMING         TSTM      73  57  57 E13       30.27F
LAS CRUCES     CLOUDY    73  55  53 NE3       30.23F
HOLLOMAN AFB   FAIR      69  65  85 N12       30.22F
ALAMOGORDO     FAIR      66  61  82 N10       30.23R
T OR C         FAIR      70  56  61 SW10      30.25S

$$
NMZ519>523-260800-
CENTRAL VALLEYS/CENTRAL HIGHLANDS

CITY           SKY/WX    TMP DP  RH WIND       PRES   REMARKS
ALBUQUERQUE    FAIR      69  52  54 E8        30.29R
DOUBLE EAGLE   FAIR      58  48  69 SE6       30.31S
MORIARTY ARPT  FAIR      56  53  90 S3        30.37F
CLINES CORNERS NOT AVBL
BELEN          NOT AVBL
SOCORRO        FAIR      64  55  74 S5        30.24S

$$
NMZ524>526-539-540-260800-
SOUTHCENTRAL MOUNTAINS

CITY           SKY/WX    TMP DP  RH WIND       PRES   REMARKS
RUIDOSO        FAIR      57  52  82 CALM      30.41S

$$
NMZ527>531-260800-
NORTHEAST HIGHLANDS/NORTHEAST PLAINS

CITY           SKY/WX    TMP DP  RH WIND       PRES   REMARKS
LAS VEGAS      FAIR      52  51  97 SW6       30.42R
RATON          FAIR      57  54  89 N5        30.35F
CLAYTON        FAIR      58  57  97 N3        30.32S

$$
NMZ532>537-260800-
EASTCENTRAL PLAINS

CITY           SKY/WX    TMP DP  RH WIND       PRES   REMARKS
SANTA ROSA     PTSUNNY   60  56  87 CALM      30.30S
TUCUMCARI      FAIR      63  60  90 S17       30.26F
CANNON AFB     CLOUDY    61  61 100 E18       30.35R
CLOVIS AIRPORT LGT RAIN  62  60  93 E14       30.34F

$$
NMZ028-029-538-260800-
SOUTHEAST PLAINS

CITY           SKY/WX    TMP DP  RH WIND       PRES   REMARKS
ROSWELL        FAIR      66  62  87 CALM      30.24R
ARTESIA        FAIR      68  64  88 SE9       30.22F
CARLSBAD       RAIN      67  67 100 N9        30.23S
HOBBS          LGT RAIN  64  64 100 N21       30.29R


$$




USA.gov is the U.S. government's official web portal to all federal, state and local government web resources and services.